Location: San Antonio de Areco
(34.2500°S, 59.4670°W)
Time: 23:03:57
(UTC-03:00)

ISS - Visible Passes

Search period start: 07 February 2016 00:00
Search period end: 17 February 2016 00:00
Orbit: 399 x 408 km, 51.6° (Epoch: 07 February)

Date Brightness Start Highest point End Pass type
(mag) Time Alt. Az. Time Alt. Az. Time Alt. Az.
07 Feb -3.3 05:20:41 23° NW 05:22:39 88° SW 05:26:02 10° SE visible
08 Feb -2.2 04:30:26 39° ENE 04:30:26 39° ENE 04:33:19 10° ESE visible
09 Feb 0.1 03:40:06 10° E 03:40:06 10° E 03:40:08 10° E visible
09 Feb -2.2 05:12:44 24° W 05:14:00 33° SW 05:17:05 10° SSE visible
10 Feb -2.1 04:22:19 41° SSE 04:22:19 41° SSE 04:24:41 10° SE visible
10 Feb -0.6 05:57:35 10° SW 05:58:20 11° SSW 05:59:04 10° SSW visible
11 Feb 0.2 03:31:49 11° ESE 03:31:49 11° ESE 03:32:00 10° ESE visible
11 Feb -1.1 05:04:27 15° SW 05:05:26 16° SSW 05:07:39 10° S visible
12 Feb -1.0 04:13:54 21° S 04:13:54 21° S 04:15:32 10° SSE visible
14 Feb -0.2 04:05:14 12° S 04:05:14 12° S 04:05:50 10° S visible
